Home   Weather   Chicago   Past weeks

Flag for USA Past Weather in Chicago, Illinois, USA — Yesterday and Last 2 Weeks

Now
59 °F

Passing clouds.


Feels Like: 59 °F
Forecast: 42 / 59 °F
Wind: No wind

Location: Chicago Midway Airport

Current Time: Apr 23, 2017 at 11:10:15 am

Latest Report: Apr 23, 2017 at 9:53 am


Visibility: 10 mi

Pressure: 30.14 "Hg

Humidity: 32%

Dew Point: 29 °F

Location of ChicagoLocation

Past Weather in Chicago — Graph

°F

Chicago Temperature Yesterday

Maximum temperature yesterday: 58 °F (at 2:53 pm)
Minimum temperature yesterday: 44 °F (at 4:53 am)
Average temperature yesterday: 51 °F

High & Low Weather Summary for the Past Weeks

 TemperatureHumidityPressure
High81 °F (Apr 15, 1:53 pm)100% (Apr 11, 1:13 am)30.41 "Hg (Apr 11, 1:13 am)
Low40 °F (Apr 12, 5:53 am)23% (Apr 18, 1:53 pm)29.64 "Hg (Apr 9, 5:53 pm)
Average58 °F61%30.05 "Hg
* Reported Apr 8 9:53 am — Apr 23 9:53 am, Chicago, Weather by CustomWeather, © 2017

Note: Actual official high and low records may vary slightly from our data, if they occured in-between our weather recording intervals... More about our weather records

Advertising

Chicago Weather History for the Previous 24 Hours

Scroll right to see more
 ConditionsComfort  
Time TempWeatherWind HumidityBarometerVisibility
9:53 am
Sun, Apr 23
59 °FPassing clouds.No wind32%30.14 "Hg10 mi
8:53 am55 °FPassing clouds.No wind39%30.15 "Hg10 mi
7:53 am49 °FPassing clouds.No wind59%30.16 "Hg10 mi
6:53 am43 °FPassing clouds.No wind68%30.15 "Hg10 mi
5:53 am41 °FPassing clouds.No wind70%30.16 "Hg10 mi
4:53 am40 °FClear.5 mph70%30.14 "Hg10 mi
3:53 am41 °FClear.No wind70%30.13 "Hg10 mi
2:53 am43 °FClear.6 mph62%30.14 "Hg10 mi
1:53 am45 °FClear.No wind56%30.15 "Hg10 mi
12:53 am47 °FClear.3 mph50%30.16 "Hg10 mi
11:53 pm
Sat, Apr 22
47 °FClear.3 mph44%30.16 "Hg10 mi
10:53 pm49 °FClear.3 mph38%30.17 "Hg10 mi
9:53 pm51 °FClear.No wind32%30.17 "Hg10 mi
8:53 pm51 °FClear.6 mph31%30.16 "Hg10 mi
7:53 pm52 °FPassing clouds.6 mph31%30.16 "Hg10 mi
6:53 pm55 °FPassing clouds.10 mph29%30.16 "Hg10 mi
5:53 pm57 °FPassing clouds.14 mph27%30.16 "Hg10 mi
4:53 pm58 °FScattered clouds.12 mph30%30.16 "Hg10 mi
3:53 pm58 °FPartly sunny.15 mph27%30.16 "Hg10 mi
2:53 pm58 °FPartly sunny.15 mph31%30.18 "Hg10 mi
12:53 pm56 °FPartly sunny.16 mph36%30.20 "Hg10 mi
11:53 am53 °FPartly sunny.13 mph38%30.21 "Hg10 mi
Weather by CustomWeather, © 2017

See weather overviewHow to use our weather pages